Location: Angwan Shehu
(11.2514°N, 7.4613°E)
Time: 21:43:52
(UTC+00:00)

Vanguard 3 - Visible Passes

Search period start: 29 July 2021 00:00
Search period end: 08 August 2021 00:00
Orbit: 508 x 3261 km, 33.4° (Epoch: 28 July)

Date Brightness Start Highest point End Pass type
(mag) Time Alt. Az. Time Alt. Az. Time Alt. Az.
29 Jul 10.7 01:31:51 10° WNW 01:58:17 - SE 01:33:50 15° WNW visible
29 Jul 9.6 04:02:55 12° SSW 04:02:55 12° SSW 04:03:51 10° SSW visible
29 Jul 11.0 19:35:54 10° WNW 19:52:02 36° N 20:09:00 10° ENE visible
29 Jul 10.4 21:55:19 10° NW 22:13:34 41° NNE 22:18:13 36° NE visible
30 Jul 10.5 00:13:40 10° NW 00:22:40 34° NW 00:22:40 34° NW visible
30 Jul 11.0 18:18:30 10° WNW 18:32:52 39° N 18:50:51 10° NE visible
30 Jul 10.8 20:37:16 10° NW 20:54:35 36° N 21:07:07 18° ENE visible
30 Jul 10.1 22:55:41 10° NW 23:11:34 51° N 23:11:34 51° N visible
31 Jul 11.1 01:14:06 10° WNW 01:16:01 14° WNW 01:16:01 14° WNW visible
31 Jul 11.0 19:19:33 10° WNW 19:35:11 35° N 19:52:17 10° ENE visible
31 Jul 10.3 21:37:55 10° NW 21:56:37 44° NNE 22:00:32 41° NE visible
31 Jul 10.6 23:55:47 10° NW 00:04:59 35° NW 00:04:59 35° NW visible
01 Aug 11.0 18:02:30 10° WNW 18:16:05 36° N 18:33:35 10° NE visible
01 Aug 10.8 20:20:24 10° NW 20:37:40 38° N 20:49:33 21° ENE visible
01 Aug 10.1 22:37:58 10° NW 22:54:01 55° NNW 22:54:01 55° NNW visible
02 Aug 11.2 00:56:24 10° WNW 00:58:29 15° WNW 00:58:29 15° WNW visible
02 Aug 11.0 19:03:13 10° WNW 19:18:22 35° N 19:35:33 10° ENE visible
02 Aug 10.2 21:20:33 10° NW 21:39:33 48° NNE 21:43:06 45° NE visible
02 Aug 10.6 23:37:59 10° WNW 23:47:33 36° NW 23:47:33 36° NW visible
03 Aug 11.0 17:46:33 10° WNW 17:59:22 34° N 18:16:19 10° NE visible
03 Aug 10.7 20:03:32 10° NW 20:20:40 40° NNE 20:32:13 23° ENE visible
03 Aug 10.1 22:20:18 10° NW 22:36:41 60° NNW 22:36:41 60° NNW visible
04 Aug 11.2 00:38:47 10° WNW 00:41:09 15° WNW 00:41:09 15° WNW visible
04 Aug 10.9 18:46:54 10° NW 19:01:32 35° N 19:18:48 10° ENE visible
04 Aug 10.2 21:03:15 10° NW 21:22:19 53° NNE 21:25:51 49° NE visible
04 Aug 10.6 23:20:16 10° WNW 23:30:20 38° WNW 23:30:20 38° WNW visible
05 Aug 10.6 19:46:41 10° NW 20:03:35 42° NNE 20:15:05 24° ENE visible
05 Aug 10.0 22:02:44 10° NW 22:19:33 66° NNW 22:19:33 66° NNW visible
06 Aug 11.2 00:21:15 10° WNW 00:24:02 16° WNW 00:24:02 16° WNW visible
06 Aug 10.8 18:30:34 10° NW 18:44:42 35° NNE 19:02:01 10° ENE visible
06 Aug 10.1 20:46:00 10° NW 21:04:57 57° NNE 21:08:50 52° ENE visible
06 Aug 10.6 23:02:40 10° WNW 23:13:19 40° WNW 23:13:19 40° WNW visible
07 Aug 10.5 19:29:52 10° NW 19:46:26 45° NNE 19:58:10 25° ENE visible
07 Aug 9.9 21:45:17 10° NW 22:02:39 72° NNW 22:02:39 72° NNW visible
